Location: Waco, TX
(31.5480°N, 97.1670°W)
Time: 21:28:09
(UTC-06:00)

ISS - Pass Details

Date: 17 February 2018
Orbit: 403 x 407 km, 51.6° (Epoch: 18 February)

Event Time Altitude Azimuth Distance (km) Brightness Sun altitude
Rises 08:28:16 0° 189° (S) 2,303 0.2 15.3°
Reaches altitude 10° 08:30:55 10° 166° (SSE) 1,448 -0.3 15.8°
Maximum altitude 08:32:56 16° 127° (SE) 1,159 0.8 16.2°
Drops below altitude 10° 08:34:59 10° 88° (E) 1,452 0.3 16.6°
Sets 08:37:38 0° 65° (ENE) 2,314 0.6 17.1°
